Orbital Elements at Epoch 2459000.5 (2020-May-31.0) TDB
Reference: JPL 17 (heliocentric ecliptic J2000)
Element | Value | Uncertainty (1-sigma) | Units |
e | .2022958388448067 | 4.1297e-08 | |
a | 2.18729418878533 | 1.0543e-08 | au |
q | 1.744813676064631 | 9.0365e-08 | au |
i | 4.254723469743568 | 4.6189e-06 | deg |
node | 85.56947358619379 | 6.1119e-05 | deg |
peri | 286.3464554415696 | 6.2787e-05 | deg |
M | 220.6959768798504 | 1.9967e-05 | deg |
tp | 2459457.714909334325 (2021-Aug-31.21490933) | 6.7978e-05 | TDB |
period | 1181.569373760239 3.23 | 8.5432e-06 2.339e-08 | d yr |
n | .3046795287646397 | 2.2029e-09 | deg/d |
Q | 2.629774701506029 | 1.2676e-08 | au |
|
| | Orbit Determination Parameters
Additional Information
|